OPS 4682 DEB, 55114

Orbit data source: Space-Track

OPS 4682 DEB, 55114 is space debris in LEO originally from a launch on Sat, 03 Apr 1965 UTC launched from the Air Force Western Test Range (AFWTR). Debris objects in space refer to the collection of defunct objects orbiting the Earth. Examples of debris include non-operational satellites, rocket bodies, and fragments generated from explosions, collisions, or faulty payload assembly.

Loading next visibility...
Identifier
55114, 1965-027HD
Orbit
LEO
Country
Flag of USUS
Related business
Manufacturer
Unknown
Mission
Spacecraft
Bus & Motor
Unknown
Mass
Unknown
Launch date (UTC)
1965-04-03 (61 years ago)
Launch vehicle
Unknown
Launch site
Air Force Western Test Range (AFWTR)
Object type
Payload
Rocket body
Debris
Shape & HBR
Unknown
Radar Cross Section
Medium (>0.1 m² and <1 m²)

Expand to show TLE details & history
Last TLE update: 2 weeks ago

TLE from 2 weeks ago
0 OPS 4682 DEB
1 55114U 65027HD  26197.47147733 -.00000010  00000-0 -58499-4 0  9999
2 55114  90.2638  18.8507 0032730  19.3598 340.8758 12.97403381551683
Epoch: 2026-07-16T11:18Z
TLE epoch observation values (Epoch: 2026-07-16T11:18:55.641Z)
Latitude
-0°
Longitude
-85.19359°
Altitude
1,251.504 km
Speed
7.241 km/s
True Right ascension
01h 15m 24s
True Declination
0° 00' 00"
Sunlit
Object was in daylight at epoch
Visualization orbit readout
Latitude
Unknown
Longitude
Unknown
Altitude
Unknown
Speed
Unknown
Apparent Right ascension
Unknown
Apparent Declination
Unknown
Sunlit
N/A
Visualization observer readout
Local Sidereal Time
12:12:45
Azimuth
Unknown
Elevation
Unknown
Doppler factor
Unknown
Orbital elements
Apogee altitude
1,294.439 km
Perigee altitude
1,244.378 km
Semi-major axis
7,647.545 km
Eccentricity
0.00327
Inclination
90.2638°
RAAN
18.8507°
Arg. of periapsis
19.3598°
True anomaly
340.75245°
Mean anomaly
340.8758°
Eccentric anomaly
340.81417°
Mean motion
3.24534 °/min
Orbital period
110.93 mins
BSTAR
-0.000058499
Loading maneuver chart data...
Computing Atmospheric mass density...
Loading historical data...
Loading historical data...
Loading historical data...
Loading historical data...
Loading historical data...
Loading historical data...
Loading historical data...

Documentation

Showing up to 5 results
|